Terminal Aerodrome Forecast
Issued by NWS Oklahoma City, OK

Home | Current Version | Previous Version | Text Only | Print | Product List | Glossary On
Versions: 1 2 3 4 5 6 7 8 9 10 11 12 13 14 15 16 17 18 19 20 21 22 23 24 25 26 27 28 29 30 31 32 33 34 35 36
912
FTUS44 KOUN 292339
TAFOUN
TAF
KOUN 292339Z 3000/3024 29014KT P6SM BKN040
     FM300600 30015KT P6SM BKN025
     FM301500 31015G22KT P6SM BKN030
     FM301800 31015G22KT P6SM SCT035=

USA.gov is the U.S. government's official web portal to all federal, state and local government web resources and services.